Location: Peebles
(55.6412°N, 3.1714°W)
Time: 22:02:56
(UTC+00:00)

FENGYUN 1C DEB - Pass Details

Date: 09 February 2023
Orbit: 707 x 862 km, 98.5° (Epoch: 07 November)

Event Time Altitude Azimuth Distance (km) Brightness Sun altitude
Rises 21:20:34 0° 222° (SW) 3,402 ? -35.6°
Reaches altitude 10° 21:24:11 10° 247° (WSW) 2,478 ? -36.1°
Maximum altitude 21:27:01 14° 278° (W) 2,199 ? -36.4°
Drops below altitude 10° 21:29:52 10° 309° (NW) 2,481 ? -36.8°
Sets 21:33:31 0° 334° (NNW) 3,409 ? -37.2°
